THOR BURNER 2 R/B, 2877

Orbit data source: Space-Track

THOR BURNER 2 R/B, 2877 is space debris in LEO originally from a launch on Thu, 29 Jun 1967 UTC launched from the Air Force Western Test Range (AFWTR). Debris objects in space refer to the collection of defunct objects orbiting the Earth. Examples of debris include non-operational satellites, rocket bodies, and fragments generated from explosions, collisions, or faulty payload assembly.

Loading next visibility...
Identifier
2877, 1967-065C
Orbit
LEO
Country
Flag of USUS
Related business
Manufacturer
BOKT/THKE
Mission
Spacecraft
Bus & Motor
STAR 13, STAR 13
Mass
58 kg wet, 25 kg dry
Launch date (UTC)
1967-06-29 (59 years ago)
Launch vehicle
Unknown
Launch site
Air Force Western Test Range (AFWTR)
Object type
Payload
Rocket body
Debris
Shape & HBR
Unknown
Radar Cross Section
Medium (>0.1 m² and <1 m²)

Expand to show TLE details & history
Last TLE update: 2 weeks ago

TLE from 2 weeks ago
0 THOR BURNER 2 R/B
1 02877U 67065C   26152.42524661 -.00000022  00000-0 -14719-1 0  9993
2 02877  89.9766 313.6146 0065258 109.9244 250.8637  8.36608618799664
Epoch: 2026-06-01T10:12Z
TLE epoch observation values (Epoch: 2026-06-01T10:12:21.307Z)
Latitude
-0.00002°
Longitude
-89.38693°
Altitude
3,896.244 km
Speed
6.222 km/s
True Right ascension
20h 54m 27s
True Declination
0° 00' 00"
Sunlit
Object was in daylight at epoch
Visualization orbit readout
Latitude
Unknown
Longitude
Unknown
Altitude
Unknown
Speed
Unknown
Apparent Right ascension
Unknown
Apparent Declination
Unknown
Sunlit
N/A
Visualization observer readout
Local Sidereal Time
13:36:03
Azimuth
Unknown
Elevation
Unknown
Doppler factor
Unknown
Orbital elements
Apogee altitude
3,936.512 km
Perigee altitude
3,802.762 km
Semi-major axis
10,247.774 km
Eccentricity
0.00653
Inclination
89.9766°
RAAN
313.6146°
Arg. of periapsis
109.9244°
True anomaly
250.15912°
Mean anomaly
250.8637°
Eccentric anomaly
250.51122°
Mean motion
2.09218 °/min
Orbital period
172.07 mins
BSTAR
-0.014719
Loading maneuver chart data...
Computing Atmospheric mass density...
Loading historical data...
Loading historical data...
Loading historical data...
Loading historical data...
Loading historical data...
Loading historical data...
Loading historical data...
Other satellites on launch #65 in the year 1967 (1967-06-29 UTC)

Documentation

Showing up to 5 results
|